TimeCST,TemperatureF,Dew PointF,Humidity,Sea Level PressureIn,VisibilityMPH,Wind Direction,Wind SpeedMPH,Gust SpeedMPH,PrecipitationIn,Events,Conditions,WindDirDegrees,DateUTC
12:53 AM,42.1,28.0,58,29.84,10.0,WNW,21.9,31.1,N/A,,Clear,300,2013-02-26 06:53:00
1:53 AM,41.0,27.0,57,29.86,10.0,WNW,12.7,23.0,N/A,,Clear,300,2013-02-26 07:53:00
2:53 AM,41.0,27.0,57,29.86,10.0,WNW,9.2,19.6,N/A,,Clear,300,2013-02-26 08:53:00
3:53 AM,39.9,27.0,60,29.86,10.0,WNW,13.8,21.9,N/A,,Clear,300,2013-02-26 09:53:00
4:53 AM,39.0,27.0,62,29.88,10.0,WNW,9.2,-,N/A,,Clear,300,2013-02-26 10:53:00
5:53 AM,37.9,27.0,65,29.89,10.0,WNW,9.2,-,N/A,,Clear,300,2013-02-26 11:53:00
6:53 AM,37.0,26.1,65,29.91,10.0,West,6.9,-,N/A,,Clear,270,2013-02-26 12:53:00
7:53 AM,37.9,27.0,65,29.94,10.0,WNW,8.1,-,N/A,,Clear,290,2013-02-26 13:53:00
8:53 AM,42.1,27.0,55,29.96,10.0,NW,10.4,-,N/A,,Clear,310,2013-02-26 14:53:00
9:53 AM,46.0,26.1,46,29.96,10.0,NW,12.7,19.6,N/A,,Clear,310,2013-02-26 15:53:00
10:53 AM,50.0,27.0,41,29.96,10.0,WNW,12.7,-,N/A,,Clear,290,2013-02-26 16:53:00
11:53 AM,54.0,27.0,35,29.94,10.0,NW,9.2,-,N/A,,Clear,310,2013-02-26 17:53:00
12:53 PM,57.0,24.1,28,29.91,10.0,WNW,13.8,24.2,N/A,,Clear,290,2013-02-26 18:53:00
1:53 PM,59.0,25.0,27,29.88,10.0,West,11.5,18.4,N/A,,Clear,270,2013-02-26 19:53:00
2:53 PM,62.1,25.0,24,29.87,10.0,WNW,8.1,-,N/A,,Clear,300,2013-02-26 20:53:00
3:53 PM,62.1,25.0,24,29.85,10.0,Variable,6.9,-,N/A,,Clear,0,2013-02-26 21:53:00
4:53 PM,62.1,24.1,23,29.85,10.0,WSW,6.9,-,N/A,,Clear,250,2013-02-26 22:53:00
5:53 PM,61.0,24.1,24,29.85,10.0,Calm,Calm,-,N/A,,Clear,0,2013-02-26 23:53:00
6:53 PM,57.0,27.0,32,29.85,10.0,East,3.5,-,N/A,,Clear,100,2013-02-27 00:53:00
7:53 PM,54.0,28.0,37,29.86,10.0,Calm,Calm,-,N/A,,Clear,0,2013-02-27 01:53:00
8:53 PM,51.1,28.0,41,29.88,10.0,Calm,Calm,-,N/A,,Clear,0,2013-02-27 02:53:00
9:53 PM,50.0,28.0,43,29.88,10.0,Calm,Calm,-,N/A,,Clear,0,2013-02-27 03:53:00
10:53 PM,46.9,28.0,48,29.88,10.0,Calm,Calm,-,N/A,,Clear,0,2013-02-27 04:53:00
11:53 PM,46.9,27.0,46,29.87,10.0,Calm,Calm,-,N/A,,Clear,0,2013-02-27 05:53:00